Flag for Russia Weather past 2 weeks in Saratov, Russia

Now
68 °F

Sunny.


Feels Like: 68 °F
Forecast: 69 / 84 °F
Wind: 6 mph from South

Location: Saratov / Tsentralny

Current Time: May 25, 2015 at 7:17:16 AM

Latest Report: May 25, 2015 at 6:30 AM


Visibility: 10 mi

Pressure: 30.04 "Hg

Humidity: 43%

Dew point: 45 °F

Location of SaratovLocation

Historic Weather in Saratov — Graph

°F

Saratov temperature yesterday

Maximum temperature yesterday: 82 °F (at 12:00 PM)
Minimum temperature yesterday: 66 °F (at 12:00 AM)
Average temperature yesterday: 75 °F

Past Weeks' High & Low Weather Summary

 TemperatureHumidityPressure
High82 °F (May 24, 12:00 PM)100% (May 12, 6:00 AM)30.21 "Hg (May 12, 6:00 AM)
Low46 °F (May 10, 6:00 AM)19% (May 22, 1:00 PM)29.50 "Hg (May 18, 12:00 AM)
Average60 °F57%29.92 "Hg
* Reported May 10 6:00 AM — May 25 6:00 AM, Saratov, Weather by CustomWeather, © 2015

Note: Actual official high and low records may vary slightly from our data, if they occured in-between our weather recording intervals... More about our weather records

Advertising

Saratov weather history for previous 24 hours

 ConditionsComfort  
Time TempWeatherWind HumidityBarometerVisibility
6:00 AM
Mon, May 25
68 °FSunny.6 mph43%30.04 "Hg10 mi
5:30 AM64 °FSunny.8 mph43%30.01 "Hg10 mi
5:00 AM64 °FSunny.8 mph43%30.01 "Hg10 mi
4:30 AM64 °FClear.6 mph43%30.01 "Hg10 mi
4:00 AM64 °FClear.8 mph43%30.01 "Hg10 mi
3:30 AM66 °FClear.6 mph40%30.01 "Hg10 mi
3:00 AM66 °FClear.6 mph40%30.01 "Hg10 mi
2:30 AM66 °FClear.3 mph40%30.01 "Hg10 mi
2:00 AM66 °FClear.3 mph40%30.01 "Hg10 mi
1:30 AM68 °FClear.6 mph35%30.01 "Hg10 mi
1:00 AM68 °FClear.6 mph35%30.01 "Hg10 mi
12:30 AM73 °FClear.3 mph31%30.01 "Hg10 mi
12:00 AM73 °FClear.3 mph31%30.01 "Hg10 mi
11:30 PM
Sun, May 24
73 °FClear.3 mph36%30.01 "Hg10 mi
11:00 PM73 °FClear.6 mph36%30.01 "Hg10 mi
10:30 PM70 °FClear.1 mph40%30.01 "Hg10 mi
10:00 PM70 °FClear.1 mph40%30.01 "Hg10 mi
9:30 PM72 °FClear.6 mph38%30.01 "Hg10 mi
9:00 PM72 °FClear.6 mph38%30.01 "Hg10 mi
8:30 PM77 °FSunny.3 mph30%30.01 "Hg10 mi
8:00 PM77 °FSunny.3 mph30%30.01 "Hg10 mi
7:30 PM77 °FSunny.3 mph30%30.01 "Hg10 mi
7:00 PM77 °FSunny.6 mph30%30.01 "Hg10 mi
6:30 PM79 °FSunny.8 mph24%30.01 "Hg10 mi
6:00 PM79 °FSunny.6 mph24%30.01 "Hg10 mi
5:30 PM82 °FSunny.8 mph21%30.04 "Hg10 mi
5:00 PM82 °FSunny.8 mph21%30.04 "Hg10 mi
4:30 PM82 °FSunny.10 mph21%30.04 "Hg10 mi
4:00 PM82 °FSunny.8 mph21%30.04 "Hg10 mi
3:30 PM82 °FSunny.10 mph25%30.04 "Hg10 mi
3:00 PM82 °FSunny.10 mph25%30.04 "Hg10 mi
2:30 PM82 °FSunny.10 mph23%30.04 "Hg10 mi
2:00 PM82 °FSunny.8 mph23%30.04 "Hg10 mi
1:30 PM82 °FSunny.8 mph25%30.07 "Hg10 mi
1:00 PM82 °FSunny.6 mph25%30.07 "Hg10 mi
12:30 PM82 °FSunny.10 mph25%30.07 "Hg10 mi
12:00 PM82 °FSunny.8 mph25%30.07 "Hg10 mi
11:30 AM81 °FSunny.10 mph32%30.07 "Hg10 mi
11:00 AM81 °FSunny.10 mph32%30.07 "Hg10 mi
10:30 AM79 °FSunny.8 mph39%30.07 "Hg10 mi
10:00 AM79 °FSunny.8 mph39%30.07 "Hg10 mi
9:30 AM73 °FSunny.6 mph41%30.07 "Hg10 mi
9:00 AM73 °FSunny.6 mph41%30.07 "Hg10 mi
8:30 AM75 °FSunny.6 mph36%30.07 "Hg10 mi
8:00 AM75 °FSunny.1 mph36%30.07 "Hg10 mi
7:30 AM73 °FSunny.3 mph36%30.07 "Hg10 mi
7:00 AM73 °FSunny.3 mph36%30.07 "Hg10 mi
Weather by CustomWeather, © 2015

See weather overviewHow to use our weather pages